Weather History for La Paz, Mexico

Change the Weather History Date:

Thursday, August 1, 2013

  Actual Average Record
Temperature  
Mean Temperature 90 °F -  
Max Temperature 105 °F 96 °F 105 °F (2013)
Min Temperature 76 °F 75 °F 71 °F (1999)
Cooling Degree Days 26    
Growing Degree Days 40 (Base 50)    
Moisture  
Dew Point 62 °F    
Average Humidity 42    
Maximum Humidity 73    
Minimum Humidity 22    
Precipitation  
Precipitation 0.00 in - - ()
Sea Level Pressure  
Sea Level Pressure 29.91 in    
Wind  
Wind Speed 8 mph ()    
Max Wind Speed 15 mph    
Max Gust Speed -    
Visibility 10.1 miles    
Events      
Averages and records for this station are not official NWS values.
T = Trace of Precipitation, MM = Missing Value Source: Averaged Metar Reports

Daily Weather History Graph

Daily Weather History Graph

Search for Another Location

Airport:

Trip Planner

Search our weather history database for the weather conditions in past years. The results will help you decide how hot, cold, wet, or windy it might be!

Date:

Astronomy

Aug. 01, 2013 Rise Set
Actual Time 6:50 AM MDT 8:04 PM MDT
Civil Twilight 6:26 AM MDT 8:28 PM MDT
Nautical Twilight 5:57 AM MDT 8:57 PM MDT
Astronomical Twilight 5:27 AM MDT 9:27 PM MDT
Moon 2:32 AM MDT (8/1) 4:11 PM MDT (8/1)
Length of Visible Light 14h 02m
Length of Day
13h 13m
Waning Crescent, 23% of the Moon is Illuminated
Aug 1
Waning Crescent
Aug 6
New
Aug 14
First Quarter
Aug 20
Full
Aug 28
Last Quarter

Hourly Weather History & Observations

Time (MDT) Temp. Heat Index Dew Point Humidity Pressure Visibility Wind Dir Wind Speed Gust Speed Precip Events Conditions
2:50 AM 78 °F - 68 °F 63% 29.91 in 2 mi South 11.2 mph - -   Clear
5:50 AM 76 °F - 68 °F 69% 29.90 in 2 mi South 8.9 mph - -   Mostly Cloudy
6:07 AM 75.2 °F - 66.2 °F 73% 29.97 in 10.0 mi South 15.0 mph - N/A   Scattered Clouds
6:41 AM 75.2 °F - 66.2 °F 73% 29.93 in 10.0 mi South 13.8 mph - N/A   Scattered Clouds
7:52 AM 77.0 °F - 66.2 °F 69% 29.95 in 10.0 mi SW 9.2 mph - N/A   Scattered Clouds
8:40 AM 78.8 °F - 66.2 °F 65% 30.02 in 10.0 mi South 6.9 mph - N/A   Scattered Clouds
8:50 AM 82 °F - 69 °F 56% 29.96 in 16 mi South 4.5 mph - -   Scattered Clouds
9:45 AM 86.0 °F 86.1 °F 60.8 °F 43% 29.96 in 10.0 mi SSW 4.6 mph - N/A   Scattered Clouds
10:52 AM 91.4 °F 89.9 °F 57.2 °F 31% 29.95 in 12.0 mi Calm Calm - N/A   Partly Cloudy
11:48 AM 95.0 °F 93.0 °F 55.4 °F 26% 29.99 in 10.0 mi NW 4.6 mph - N/A   Scattered Clouds
11:50 AM 97 °F - 69 °F 30% 29.92 in 19 mi WNW 2.2 mph - -   Scattered Clouds
12:47 PM 93.2 °F 92.6 °F 59.0 °F 32% 29.92 in 10.0 mi North 11.5 mph - N/A   Scattered Clouds
1:40 PM 93.2 °F 93.3 °F 60.8 °F 34% 29.90 in 10.0 mi North 11.5 mph - N/A   Scattered Clouds
2:40 PM 95.0 °F 99.5 °F 68.0 °F 41% 29.93 in 10.0 mi North 10.4 mph - N/A   Mostly Cloudy
2:50 PM 103 °F - 69 °F 25% 29.87 in 19 mi NW 4.5 mph - -   Scattered Clouds
3:40 PM 100.4 °F 98.8 °F 55.4 °F 22% 29.85 in 10.0 mi SW 13.8 mph - N/A   Mostly Cloudy
4:44 PM 96.8 °F 95.1 °F 55.4 °F 25% 29.86 in 10.0 mi WSW 11.5 mph - N/A   Mostly Cloudy
5:42 PM 93.2 °F 91.9 °F 57.2 °F 30% 29.91 in 10.0 mi SSW 9.2 mph - N/A   Mostly Cloudy
5:45 PM 94 °F - 75 °F 46% 29.83 in 19 mi West 6.7 mph - -   Scattered Clouds
6:49 PM 91.4 °F 89.9 °F 57.2 °F 31% 29.86 in 10.0 mi SW 9.2 mph - N/A   Mostly Cloudy
7:40 PM 89.6 °F 87.7 °F 55.4 °F 31% 29.87 in 10.0 mi South 6.9 mph - N/A   Mostly Cloudy
8:41 PM 87.8 °F 86.1 °F 55.4 °F 33% 29.93 in 10.0 mi SW 10.4 mph - N/A   Mostly Cloudy
8:45 PM 90 °F - 62 °F 30% 29.85 in 2 mi South 4.5 mph - -   Scattered Clouds
9:40 PM 86.0 °F 84.2 °F 53.6 °F 33% 29.90 in 10.0 mi SSW 5.8 mph - N/A   Scattered Clouds
10:41 PM 82.4 °F 82.0 °F 57.2 °F 42% 29.91 in 10.0 mi South 6.9 mph - N/A   Partly Cloudy
11:50 PM 84 °F - 63 °F 39% 29.92 in 2 mi South 8.9 mph - -   Clear